Temp
7 6 7 7 7 6 6 6 7 6 6 6 7 7 7 7 8 8 8 8 8 8
7 7 7 7 7 7 6 6 6 6 5 6 6 6 7 7 7 7 7 7 7 8
7 7 7 7 6 7 6 6 6 5 5 5 6 6 6 7 7 7 7 7 7 7
7 7 7 7 6 6 6 5 5 4 4 4 5 5 6 6 7 7 7 7 7 8
7 6 7 6 6 6 5 5 4 4 4 4 4 5 5 6 6 6 6 6 7 7
6 6 6 6 6 6 5 4 4 3 4 4 4 5 5 6 6 6 6 6 7 7
6 6 6 6 6 5 5 4 3 3 3 3 4 4 5 5 6 6 6 6 7 6
5 5 5 6 5 5 4 3 3 2 3 3 3 5 5 6 6 6 6 6 6 6
5 5 5 5 4 4 3 3 2 2 2 3 3 4 4 5 6 6 6 6 6 6
4 4 4 4 4 3 3 3 3 2 2 2 2 3 4 4 5 5 6 5 5 5
4 4 4 4 4 3 3 3 2 2 2 2 2 3 3 4 4 4 4 5 4 5
4 4 4 4 3 3 3 3 3 2 2 2 2 2 2 3 3 3 4 4 4 4
3 3 3 4 3 3 3 2 3 2 2 2 2 2 2 2 2 2 2 2 2 2
3 3 3 3 3 3 2 3 2 2 2 3 3 2 2 2 3 3 3 3 3 3
Height
1445 1443 1443 1443 1443 1441 1439 1439 1439 1440 1440 1441 1442 1444 1446 1448 1450 1453 1457 1461 1465 1469
1439 1438 1436 1436 1436 1434 1432 1431 1432 1431 1432 1432 1434 1436 1438 1439 1441 1444 1447 1453 1456 1462
1434 1432 1430 1429 1428 1427 1425 1424 1424 1422 1422 1423 1424 1427 1429 1431 1433 1437 1439 1445 1447 1454
1427 1425 1423 1422 1421 1420 1418 1418 1417 1415 1414 1413 1414 1417 1419 1422 1425 1427 1431 1435 1440 1444
1421 1419 1417 1416 1415 1413 1411 1411 1410 1408 1407 1405 1404 1406 1408 1413 1416 1419 1423 1427 1432 1438
1415 1413 1411 1410 1408 1407 1405 1406 1405 1404 1401 1398 1396 1397 1399 1404 1408 1412 1415 1419 1424 1429
1409 1407 1405 1404 1402 1400 1399 1401 1401 1400 1397 1394 1392 1389 1391 1394 1401 1405 1409 1412 1417 1422
1405 1402 1400 1398 1396 1395 1396 1397 1398 1398 1394 1391 1387 1382 1384 1389 1395 1399 1403 1408 1413 1417
1403 1400 1398 1395 1392 1392 1394 1396 1397 1396 1393 1390 1384 1378 1379 1384 1389 1394 1399 1403 1407 1413
1400 1398 1396 1394 1392 1392 1394 1396 1396 1395 1393 1391 1387 1379 1379 1382 1387 1390 1394 1399 1403 1407
1400 1397 1395 1393 1392 1393 1395 1394 1395 1394 1394 1392 1391 1388 1383 1383 1386 1392 1396 1396 1404 1406
1401 1397 1394 1393 1393 1395 1394 1394 1394 1393 1395 1395 1394 1394 1391 1391 1393 1395 1399 1403 1406 1411
1402 1400 1396 1394 1394 1395 1395 1394 1394 1395 1396 1397 1397 1398 1399 1400 1402 1403 1407 1410 1414 1419
1403 1401 1398 1396 1395 1395 1396 1396 1396 1396 1396 1398 1399 1401 1403 1405 1407 1410 1413 1416 1420 1424
Wind_Speed
19 20 24 27 26 26 27 28 26 26 27 31 32 33 34 38 40 41 42 48 46 49
21 21 22 25 27 29 26 24 26 31 33 32 33 33 33 37 39 42 43 48 48 51
23 21 23 23 25 25 25 23 24 28 32 32 35 38 35 38 37 40 43 45 47 49
21 23 24 23 24 22 23 23 21 24 25 29 32 34 39 37 37 40 41 51 49 54
19 18 22 22 22 19 25 19 17 19 25 30 32 35 38 41 38 38 39 45 51 51
18 18 19 20 18 17 19 19 15 17 9 12 20 34 35 39 35 34 44 43 52 50
16 18 19 18 18 17 16 16 14 20 14 19 23 18 34 36 40 32 40 48 50 51
10 8 7 12 14 12 12 11 12 11 10 11 14 17 26 35 32 33 39 46 46 44
8 7 5 6 4 6 13 9 8 7 3 3 16 6 20 26 33 30 31 35 42 40
5 4 2 2 2 11 8 6 8 3 4 7 9 5 15 24 29 28 30 34 37 41
8 3 4 4 2 12 7 8 9 10 7 6 9 16 15 18 20 20 19 20 26 28
8 7 4 4 9 8 6 7 4 11 10 7 10 12 20 24 26 26 25 25 26 28
4 4 5 6 12 6 7 5 6 15 15 7 6 14 17 15 16 20 20 19 19 18
3 5 7 9 11 11 10 9 9 9 10 10 14 13 10 8 9 17 17 19 18 18
Wind_Direction
273 270 268 264 265 278 283 274 267 267 261 254 249 242 240 235 233 233 232 223 230 227
275 274 273 269 267 275 274 265 273 273 261 256 247 245 238 237 235 233 233 232 224 225
281 278 277 274 263 280 267 263 274 267 256 252 247 243 244 242 238 236 233 229 220 224
271 272 270 269 265 273 262 263 277 267 256 249 242 243 241 243 240 236 229 232 222 221
275 274 268 267 267 274 258 252 277 271 275 255 247 237 235 237 241 240 236 232 217 227
274 271 263 270 266 268 259 244 264 268 263 292 265 240 239 235 240 237 233 229 220 227
284 271 272 265 270 262 253 238 254 258 273 285 272 276 237 235 235 230 238 224 233 222
316 274 272 280 267 251 225 232 244 260 262 244 302 260 226 220 223 234 229 222 231 224
302 276 289 319 216 207 195 218 227 244 299 197 2 245 209 223 228 222 222 236 232 224
349 334 328 46 153 204 168 195 218 229 243 233 339 40 201 211 214 217 221 213 215 218
347 352 30 114 80 189 192 210 239 224 147 106 134 67 125 157 158 165 174 178 184 159
5 19 65 102 145 176 149 169 158 205 160 151 114 117 89 104 108 114 125 139 146 150
348 16 54 96 154 137 117 111 120 146 143 138 153 133 123 118 123 124 129 132 134 141
23 67 70 95 151 153 132 129 130 128 156 176 140 145 145 158 165 142 137 135 138 148